Melfa, VA

5:10 AM EST on January 18, 2018 (GMT -0500)
Accomack County

Weather History for KMFV - January, 2013

Change the Weather History Date:

Thursday, January 17, 2013

  Actual Average (KWAL) Record (KWAL)
Temperature  
Mean Temperature 40 °F -  
Max Temperature 46 °F 40 °F 64 °F (2012)
Min Temperature 33 °F 26 °F 0 °F (1982)
Degree Days  
Heating Degree Days 24    
Moisture  
Dew Point 40 °F    
Average Humidity 90    
Maximum Humidity 93    
Minimum Humidity 81    
Precipitation  
Precipitation 0.61 in - - ()
Sea Level Pressure  
Sea Level Pressure 30.05 in    
Wind  
Wind Speed 3 mph (NNE)    
Max Wind Speed 10 mph    
Max Gust Speed 16 mph    
Visibility 6 miles    
Events Rain , Snow    
Averages and records for this station are not official NWS values.
T = Trace of Precipitation, MM = Missing Value Source: NWS Daily Summary

Daily Weather History Graph

Daily Weather History Graph

Search for Another Location

Airport or City:

Trip Planner

Search our weather history database for the weather conditions in past years. The results will help you decide how hot, cold, wet, or windy it might be!

Date:

Astronomy

Jan. 17, 2013 Rise Set
Actual Time 7:16 AM EST 5:10 PM EST
Civil Twilight 6:47 AM EST 5:39 PM EST
Nautical Twilight 6:15 AM EST 6:11 PM EST
Astronomical Twilight 5:44 AM EST 6:42 PM EST
Moon 10:30 AM EST (1/17) 11:50 PM EST (1/17)
Length of Visible Light 10h 51m
Length of Day
9h 54m
Waxing Crescent, 37% of the Moon is Illuminated
Jan 17
Waxing Crescent
Jan 18
First Quarter
Jan 26
Full
Feb 3
Last Quarter
Feb 10
New

Hourly Weather History & Observations

Time (EST) Temp. Windchill Dew Point Humidity Pressure Visibility Wind Dir Wind Speed Gust Speed Precip Events Conditions
12:17 AM 46.4 °F - 42.8 °F 87% 29.98 in 7.0 mi Calm Calm - N/A   Overcast
12:37 AM 46.4 °F - 42.8 °F 87% 29.98 in 10.0 mi Calm Calm - N/A   Overcast
1:00 AM 46.4 °F - 44.6 °F 93% 29.98 in 7.0 mi Calm Calm - N/A   Overcast
1:17 AM 46.4 °F - 44.6 °F 93% 30.01 in 7.0 mi Calm Calm - N/A   Drizzle
1:57 AM 46.4 °F 45.2 °F 44.6 °F 93% 30.03 in 7.0 mi WSW 3.5 mph - N/A   Overcast
2:16 AM 46.4 °F - 44.6 °F 93% 30.02 in 7.0 mi Calm Calm - N/A   Light Drizzle
2:37 AM 46.4 °F - 44.6 °F 93% 30.03 in 7.0 mi Calm Calm - N/A Rain Light Rain
2:57 AM 46.4 °F - 44.6 °F 93% 30.02 in 7.0 mi Calm Calm - N/A   Drizzle
3:17 AM 46.4 °F 45.2 °F 44.6 °F 93% 30.02 in 10.0 mi WNW 3.5 mph - N/A Rain Light Rain
3:37 AM 46.4 °F 45.2 °F 44.6 °F 93% 30.02 in 7.0 mi SW 3.5 mph - N/A Rain Light Rain
3:57 AM 46.4 °F - 44.6 °F 93% 30.02 in 7.0 mi Calm Calm - N/A Rain Rain
4:17 AM 46.4 °F - 44.6 °F 93% 30.01 in 7.0 mi Calm Calm - N/A Rain Light Rain
4:37 AM 46.4 °F - 44.6 °F 93% 30.01 in 7.0 mi Calm Calm - N/A   Light Drizzle
4:57 AM 46.4 °F - 44.6 °F 93% 30.00 in 5.0 mi Calm Calm - N/A   Light Drizzle
5:17 AM 46.4 °F - 44.6 °F 93% 30.02 in 5.0 mi Calm Calm - 0.01 in Rain Rain
5:37 AM 46.4 °F - 44.6 °F 93% 30.03 in 5.0 mi Calm Calm - 0.03 in Rain Light Rain
6:00 AM 46.4 °F 43.5 °F 44.6 °F 93% 30.05 in 7.0 mi NNW 5.8 mph - N/A Rain Rain
6:17 AM 46.4 °F 43.5 °F 44.6 °F 93% 30.06 in 5.0 mi North 5.8 mph - N/A   Drizzle
6:40 AM 44.6 °F - 42.8 °F 93% 30.06 in 5.0 mi Calm Calm - 0.01 in   Drizzle
6:57 AM 44.6 °F 43.1 °F 42.8 °F 93% 30.06 in 5.0 mi NNE 3.5 mph - 0.01 in Rain Rain
7:17 AM 44.6 °F 42.2 °F 42.8 °F 93% 30.06 in 5.0 mi NE 4.6 mph - 0.03 in Rain Light Rain
7:37 AM 44.6 °F 40.7 °F 42.8 °F 93% 30.07 in 7.0 mi NE 6.9 mph - 0.04 in Rain Rain
7:58 AM 44.6 °F 41.4 °F 42.8 °F 93% 30.08 in 7.0 mi NE 5.8 mph - 0.01 in Rain Rain
8:17 AM 44.6 °F 43.1 °F 42.8 °F 93% 30.09 in 7.0 mi ENE 3.5 mph - 0.03 in Rain Rain
8:37 AM 44.6 °F 40.7 °F 42.8 °F 93% 30.10 in 5.0 mi ENE 6.9 mph - 0.05 in Rain Rain
8:57 AM 44.6 °F 40.7 °F 41.0 °F 87% 30.11 in 10.0 mi NE 6.9 mph - N/A Rain Light Rain
9:18 AM 44.6 °F 40.7 °F 41.0 °F 87% 30.13 in 7.0 mi NE 6.9 mph - 0.02 in Rain Rain
9:37 AM 44.6 °F 41.4 °F 41.0 °F 87% 30.12 in 7.0 mi ENE 5.8 mph - 0.04 in Rain Rain
9:57 AM 44.6 °F 41.4 °F 41.0 °F 87% 30.12 in 10.0 mi NE 5.8 mph - N/A Rain Light Rain
10:20 AM 44.6 °F 42.2 °F 39.2 °F 81% 30.13 in 10.0 mi NE 4.6 mph - 0.01 in Rain Light Rain
10:55 AM 42.8 °F 40.1 °F 39.2 °F 87% 30.12 in 2.0 mi NNE 4.6 mph - N/A Rain Heavy Rain
11:16 AM 44.6 °F 40.2 °F 39.2 °F 81% 30.10 in 10.0 mi NNE 8.1 mph - 0.04 in Rain Rain
11:36 AM 44.6 °F 39.2 °F 39.2 °F 81% 30.10 in 10.0 mi North 10.4 mph - 0.07 in Rain Rain
11:56 AM 44.6 °F 40.7 °F 39.2 °F 81% 30.10 in 10.0 mi North 6.9 mph - N/A Rain Rain
12:16 PM 44.6 °F 40.2 °F 39.2 °F 81% 30.08 in 10.0 mi North 8.1 mph 16.1 mph 0.01 in Rain Light Rain
12:36 PM 42.8 °F 37.5 °F 39.2 °F 87% 30.07 in 10.0 mi North 9.2 mph - 0.02 in Rain Light Rain
12:57 PM 42.8 °F 39.3 °F 37.4 °F 81% 30.07 in 7.0 mi North 5.8 mph - N/A Rain Rain
1:16 PM 42.8 °F 39.3 °F 37.4 °F 81% 30.08 in 5.0 mi North 5.8 mph - 0.02 in Rain Rain
1:36 PM 41.0 °F 38.0 °F 37.4 °F 87% 30.06 in 5.0 mi North 4.6 mph - 0.02 in Rain Rain
1:56 PM 41.0 °F 36.4 °F 37.4 °F 87% 30.05 in 4.0 mi North 6.9 mph - N/A   Drizzle
2:16 PM 41.0 °F 36.4 °F 37.4 °F 87% 30.06 in 5.0 mi NE 6.9 mph - N/A   Drizzle
2:36 PM 39.2 °F 34.2 °F 37.4 °F 93% 30.07 in 4.0 mi North 6.9 mph - 0.01 in   Drizzle
2:56 PM 39.2 °F 34.2 °F 37.4 °F 93% 30.08 in 5.0 mi North 6.9 mph - N/A   Drizzle
3:15 PM 39.2 °F 34.2 °F 37.4 °F 93% 30.07 in 3.0 mi NNE 6.9 mph - N/A   Drizzle
3:35 PM 39.2 °F 37.0 °F 37.4 °F 93% 30.08 in 3.0 mi North 3.5 mph - 0.01 in   Drizzle
3:56 PM 39.2 °F 34.2 °F 37.4 °F 93% 30.07 in 2.5 mi North 6.9 mph - N/A   Heavy Drizzle
4:15 PM 39.2 °F 34.2 °F 37.4 °F 93% 30.06 in 4.0 mi NE 6.9 mph - N/A   Drizzle
4:56 PM 39.2 °F 35.0 °F 37.4 °F 93% 30.08 in 4.0 mi NNE 5.8 mph - N/A   Drizzle
8:16 PM 39.2 °F 33.0 °F 35.6 °F 87% 30.05 in 3.0 mi North 9.2 mph - N/A   Drizzle
8:37 PM 37.4 °F 30.8 °F 35.6 °F 93% 30.02 in 4.0 mi NNE 9.2 mph - 0.01 in   Drizzle
9:16 PM 37.4 °F 32.8 °F 35.6 °F 93% 30.04 in 2.5 mi North 5.8 mph - 0.02 in Rain Rain
9:38 PM 37.4 °F 32.1 °F 35.6 °F 93% 30.05 in 2.5 mi NNW 6.9 mph - 0.04 in Rain Rain
9:56 PM 37.4 °F 30.3 °F 35.6 °F 93% 30.04 in 2.5 mi North 10.4 mph - N/A Rain Rain
10:16 PM 37.4 °F 32.1 °F 33.8 °F 87% 30.05 in 2.5 mi North 6.9 mph - 0.05 in Rain Light Rain
10:36 PM 35.6 °F 30.7 °F 33.8 °F 93% 30.04 in 3.0 mi North 5.8 mph - 0.13 in Snow Light Snow
10:56 PM 35.6 °F 28.6 °F 33.8 °F 93% 30.00 in 2.0 mi North 9.2 mph - N/A Snow Light Snow
11:16 PM 35.6 °F 29.2 °F 33.8 °F 93% 30.01 in 2.0 mi North 8.1 mph - 0.06 in Snow Light Snow
11:36 PM 35.6 °F 29.9 °F 32.0 °F 87% 30.05 in 1.0 mi North 6.9 mph - 0.12 in Snow Light Snow
11:57 PM 33.8 °F 27.7 °F 32.0 °F 93% 30.06 in 0.8 mi NNW 6.9 mph - N/A Snow Snow